TimeEDT,TemperatureF,Dew PointF,Humidity,Sea Level PressureIn,VisibilityMPH,Wind Direction,Wind SpeedMPH,Gust SpeedMPH,PrecipitationIn,Events,Conditions,WindDirDegrees,DateUTC
12:56 AM,39.9,37.0,89,29.97,10.0,South,4.6,-,N/A,,Overcast,190,2014-03-20 04:56:00
1:05 AM,39.9,37.0,89,29.95,9.0,SSE,5.8,-,N/A,,Overcast,150,2014-03-20 05:05:00
1:12 AM,39.9,37.0,89,29.95,9.0,SSE,5.8,-,N/A,,Overcast,150,2014-03-20 05:12:00
1:42 AM,39.9,36.0,86,29.91,9.0,SE,8.1,-,N/A,,Overcast,140,2014-03-20 05:42:00
1:56 AM,39.9,37.0,89,29.91,10.0,SE,6.9,-,N/A,,Overcast,140,2014-03-20 05:56:00
2:56 AM,41.0,37.9,89,29.83,5.0,SE,10.4,17.3,0.05,Rain,Light Rain,130,2014-03-20 06:56:00
3:56 AM,42.1,39.9,92,29.77,4.0,SE,12.7,28.8,0.11,Rain,Rain,130,2014-03-20 07:56:00
4:03 AM,43.0,39.9,89,29.76,4.0,SE,11.5,21.9,0.01,Rain,Light Rain,130,2014-03-20 08:03:00
4:56 AM,43.0,41.0,93,29.71,2.5,ESE,13.8,21.9,0.13,Rain,Rain,120,2014-03-20 08:56:00
5:06 AM,43.0,41.0,93,29.70,3.0,ESE,13.8,23.0,0.01,Rain,Rain,120,2014-03-20 09:06:00
5:18 AM,44.1,42.1,93,29.69,2.5,ESE,10.4,24.2,0.04,Rain,Light Rain,120,2014-03-20 09:18:00
5:27 AM,44.1,42.1,93,29.69,6.0,ESE,11.5,20.7,0.04,Rain,Light Rain,120,2014-03-20 09:27:00
5:41 AM,44.1,42.1,93,29.67,7.0,ESE,11.5,29.9,0.04,,Overcast,120,2014-03-20 09:41:00
5:56 AM,44.1,43.0,96,29.67,7.0,SE,11.5,19.6,0.04,,Overcast,140,2014-03-20 09:56:00
6:56 AM,45.0,44.1,97,29.65,6.0,South,10.4,24.2,N/A,,Overcast,180,2014-03-20 10:56:00
7:39 AM,45.0,44.1,97,29.62,1.5,South,11.5,-,N/A,,Overcast,180,2014-03-20 11:39:00
7:56 AM,46.0,44.1,93,29.62,0.8,South,11.5,-,0.00,Rain,Light Rain,180,2014-03-20 11:56:00
8:56 AM,44.1,44.1,100,29.61,0.8,SSW,6.9,-,0.00,,Mist,210,2014-03-20 12:56:00
9:27 AM,46.9,46.0,97,29.61,1.0,WSW,9.2,-,N/A,,Overcast,240,2014-03-20 13:27:00
9:38 AM,46.9,46.0,97,29.61,3.0,West,13.8,-,N/A,,Overcast,270,2014-03-20 13:38:00
9:51 AM,46.4,44.6,93,29.61,1.0,Variable,6.9,16.1,N/A,,Overcast,0,2014-03-20 13:51:00
9:56 AM,46.0,45.0,96,29.61,1.0,West,9.2,-,N/A,,Overcast,270,2014-03-20 13:56:00
9:58 AM,46.9,45.0,93,29.61,3.0,West,8.1,-,N/A,,Overcast,280,2014-03-20 13:58:00
10:22 AM,48.0,46.0,93,29.61,10.0,West,11.5,-,N/A,,Overcast,270,2014-03-20 14:22:00
10:56 AM,50.0,46.9,89,29.62,10.0,West,16.1,-,N/A,,Overcast,260,2014-03-20 14:56:00
11:46 AM,51.1,44.1,77,29.62,10.0,WSW,15.0,24.2,N/A,,Overcast,250,2014-03-20 15:46:00
11:56 AM,52.0,44.1,74,29.62,10.0,West,11.5,-,N/A,,Overcast,270,2014-03-20 15:56:00
12:31 PM,52.0,43.0,71,29.62,10.0,West,9.2,-,N/A,,Scattered Clouds,280,2014-03-20 16:31:00
12:56 PM,54.0,43.0,66,29.62,10.0,West,9.2,-,N/A,,Partly Cloudy,270,2014-03-20 16:56:00
1:43 PM,52.0,41.0,66,29.60,10.0,SW,15.0,-,N/A,,Mostly Cloudy,220,2014-03-20 17:43:00
1:56 PM,51.1,41.0,68,29.61,10.0,SW,17.3,23.0,N/A,,Mostly Cloudy,220,2014-03-20 17:56:00
2:12 PM,51.1,41.0,68,29.61,10.0,SW,19.6,-,N/A,,Mostly Cloudy,220,2014-03-20 18:12:00
2:30 PM,51.1,41.0,68,29.61,10.0,SW,15.0,-,N/A,,Scattered Clouds,220,2014-03-20 18:30:00
2:56 PM,53.1,41.0,64,29.61,10.0,SW,12.7,-,N/A,,Scattered Clouds,220,2014-03-20 18:56:00
3:56 PM,51.1,39.9,66,29.62,10.0,SW,13.8,-,N/A,,Mostly Cloudy,220,2014-03-20 19:56:00
4:56 PM,52.0,35.1,53,29.64,10.0,West,13.8,-,N/A,,Mostly Cloudy,270,2014-03-20 20:56:00
5:56 PM,48.9,36.0,61,29.66,10.0,SSW,8.1,-,N/A,,Partly Cloudy,210,2014-03-20 21:56:00
6:56 PM,46.9,34.0,61,29.68,10.0,West,4.6,-,N/A,,Mostly Cloudy,260,2014-03-20 22:56:00
7:56 PM,42.1,33.1,70,29.70,10.0,WSW,3.5,-,N/A,,Scattered Clouds,250,2014-03-20 23:56:00
8:56 PM,42.1,32.0,67,29.73,10.0,WSW,5.8,-,N/A,,Mostly Cloudy,250,2014-03-21 00:56:00
9:56 PM,39.9,30.0,68,29.75,10.0,Calm,Calm,-,N/A,,Mostly Cloudy,0,2014-03-21 01:56:00
10:56 PM,39.0,30.0,70,29.77,10.0,West,4.6,-,N/A,,Mostly Cloudy,270,2014-03-21 02:56:00
11:56 PM,37.0,28.0,70,29.77,10.0,Calm,Calm,-,N/A,,Partly Cloudy,0,2014-03-21 03:56:00